Date String (YYYY-MM-DD hh:mm:ss) UTC,Instrument flags,absolute air pressure of the measurement (hPa),sample flow rate (lpm),inlet stack bypass flow (lpm),air temperature of the measurement (°C),ambient temperature measured by the external sensor (°C),aerosol sample conditioner tube jacket temperature (°C),OPC LED temperature (°C),internal box temperature (°C),relative humidity of the measurement (%),span deviation,mass concentration of particles derived from Lorenz-Mie calculation of OPC scattering (μg/m³),mass concentration of particles derived from Lorenz-Mie calculation of OPC scattering (μg/m³),mass concentration of particles derived from Lorenz-Mie calculation of OPC scattering (μg/m³)
DateTimeUTC,F1_M11,P_M11,Q1_M11,Q2_M11,T1_M11,T2_M11,T3_M11,T4_M11,T5_M11,U1_M11,ZSPAN_M11,X0_M11,X2_M11,X1_M11
2023-11-04 11:00:00,SystemResetWarning,0833.7,5.00,000.00,026.5,025.5,000.0,035.0,028.0,15.1,0000.0,0005.53,0002.10,0001.58
2023-11-04 11:01:00,SystemResetWarning,0833.7,5.00,000.00,026.5,025.5,000.0,035.0,028.0,15.1,0000.0,0006.76,0002.07,0001.57
2023-11-04 11:02:00,SystemResetWarning,0833.7,4.99,000.00,026.5,025.5,000.0,035.0,028.0,15.1,0000.0,0006.79,0002.08,0001.56
2023-11-04 11:03:00,SystemResetWarning,0833.8,4.99,000.00,026.5,025.5,000.0,035.0,027.9,15.2,0000.0,0006.87,0002.08,0001.55
2023-11-04 11:04:00,SystemResetWarning,0833.8,5.00,000.00,026.5,025.5,000.0,035.0,027.9,15.2,0000.0,0007.00,0002.16,0001.55
2023-11-04 11:05:00,SystemResetWarning,0833.7,5.00,000.00,026.5,025.5,000.0,035.0,027.9,15.3,0000.0,0007.50,0002.15,0001.55
2023-11-04 11:06:00,SystemResetWarning,0833.7,5.00,000.00,026.5,025.4,000.0,035.0,027.9,15.2,0000.0,0007.80,0002.08,0001.54
2023-11-04 11:07:00,SystemResetWarning,0833.6,5.00,000.00,026.5,025.4,000.0,035.0,027.9,15.2,0000.0,0008.10,0002.08,0001.54
2023-11-04 11:08:00,SystemResetWarning,0833.7,5.01,000.00,026.5,025.4,000.0,035.0,027.9,15.2,0000.0,0008.26,0002.10,0001.53
2023-11-04 11:09:00,SystemResetWarning,0833.7,5.01,000.00,026.5,025.4,000.0,035.0,028.0,15.2,0000.0,0008.15,0002.08,0001.52
2023-11-04 11:10:00,SystemResetWarning,0833.7,5.00,000.00,026.5,025.4,000.0,035.0,027.9,15.2,0000.0,0008.00,0002.07,0001.52
2023-11-04 11:11:00,SystemResetWarning,0833.7,4.99,000.00,026.5,025.4,000.0,034.9,027.9,15.2,0000.0,0007.87,0002.06,0001.53
2023-11-04 11:12:00,SystemResetWarning,0833.7,4.99,000.00,026.5,025.4,000.0,034.9,027.9,15.2,0000.0,0007.07,0002.08,0001.54
2023-11-04 11:13:00,SystemResetWarning,0833.7,5.00,000.00,026.5,025.4,000.0,034.9,027.9,15.2,0000.0,0007.07,0002.09,0001.55
2023-11-04 11:14:00,SystemResetWarning,0833.8,5.01,000.00,026.5,025.4,000.0,034.9,027.9,15.3,0000.0,0007.05,0002.11,0001.56
2023-11-04 11:15:00,SystemResetWarning,0833.8,5.00,000.00,026.5,025.5,000.0,034.9,027.9,15.3,0000.0,0006.82,0002.04,0001.55
2023-11-04 11:16:00,SystemResetWarning,0833.9,5.01,000.00,026.5,025.5,000.0,034.9,027.9,15.3,0000.0,0005.82,0002.07,0001.57
2023-11-04 11:17:00,SystemResetWarning,0833.8,4.99,000.00,026.4,025.5,000.0,034.9,027.8,15.3,0000.0,0004.14,0002.11,0001.58
2023-11-04 11:18:00,SystemResetWarning,0833.8,4.99,000.00,026.5,025.5,000.0,034.9,027.8,15.3,0000.0,0004.77,0002.09,0001.58
2023-11-04 11:19:00,SystemResetWarning,0833.8,5.01,000.00,026.5,025.5,000.0,034.9,027.9,15.3,0000.0,0004.90,0002.08,0001.58
2023-11-04 11:20:00,SystemResetWarning,0833.8,5.00,000.00,026.5,025.5,000.0,034.9,027.9,15.4,0000.0,0004.95,0002.10,0001.60
2023-11-04 11:21:00,SystemResetWarning,0833.8,5.00,000.00,026.5,025.5,000.0,034.9,027.9,15.3,0000.0,0004.90,0002.09,0001.61
2023-11-04 11:22:00,SystemResetWarning,0833.8,5.00,000.00,026.5,025.5,000.0,034.9,027.8,15.3,0000.0,0004.97,0002.12,0001.62
2023-11-04 11:23:00,SystemResetWarning,0833.8,5.00,000.00,026.4,025.5,000.0,034.9,027.9,15.3,0000.0,0005.21,0002.18,0001.63
2023-11-04 11:24:00,SystemResetWarning,0833.8,5.00,000.00,026.4,025.5,000.0,034.9,027.9,15.3,0000.0,0005.80,0002.21,0001.63
2023-11-04 11:25:00,SystemResetWarning,0833.9,5.00,000.00,026.4,025.4,000.0,034.9,027.9,15.3,0000.0,0006.16,0002.20,0001.63
2023-11-04 11:26:00,SystemResetWarning,0833.9,5.00,000.00,026.4,025.4,000.0,034.9,027.8,15.3,0000.0,0006.19,0002.23,0001.64
2023-11-04 11:27:00,SystemResetWarning,0834.0,5.00,000.00,026.4,025.4,000.0,034.9,027.8,15.3,0000.0,0006.25,0002.19,0001.64
2023-11-04 11:28:00,SystemResetWarning,0833.9,5.00,000.00,026.4,025.4,000.0,034.9,027.8,15.3,0000.0,0006.23,0002.15,0001.63
2023-11-04 11:29:00,SystemResetWarning,0833.9,5.00,000.00,026.4,025.4,000.0,034.9,027.8,15.4,0000.0,0006.14,0002.16,0001.64
2023-11-04 11:30:00,SystemResetWarning,0833.8,5.00,000.00,026.4,025.4,000.0,034.9,027.8,15.5,0000.0,0005.46,0002.21,0001.66
2023-11-04 11:31:00,SystemResetWarning,0833.9,5.00,000.00,026.4,025.4,000.0,034.9,027.9,15.5,0000.0,0006.63,0002.27,0001.68
2023-11-04 11:32:00,SystemResetWarning,0834.0,5.00,000.00,026.4,025.4,000.0,034.9,027.9,15.5,0000.0,0006.71,0002.31,0001.69
2023-11-04 11:33:00,SystemResetWarning,0833.9,5.01,000.00,026.4,025.4,000.0,034.8,027.9,15.5,0000.0,0006.69,0002.32,0001.70
2023-11-04 11:34:00,SystemResetWarning,0834.0,5.01,000.00,026.4,025.4,000.0,034.8,027.8,15.6,0000.0,0007.05,0002.28,0001.70
2023-11-04 11:35:00,SystemResetWarning,0834.0,5.00,000.00,026.4,025.4,000.0,034.8,027.8,15.6,0000.0,0007.06,0002.35,0001.72
2023-11-04 11:36:00,SystemResetWarning,0834.1,5.00,000.00,026.4,025.4,000.0,034.8,027.8,15.6,0000.0,0006.77,0002.37,0001.75
2023-11-04 11:37:00,SystemResetWarning,0834.1,5.00,000.00,026.4,025.4,000.0,034.8,027.8,15.6,0000.0,0007.06,0002.44,0001.78
2023-11-04 11:38:00,SystemResetWarning,0834.1,5.00,000.00,026.4,025.3,000.0,034.8,027.8,15.6,0000.0,0006.95,0002.48,0001.80
2023-11-04 11:39:00,SystemResetWarning,0834.1,5.00,000.00,026.4,025.3,000.0,034.8,027.7,15.5,0000.0,0007.01,0002.56,0001.83
2023-11-04 11:40:00,SystemResetWarning,0834.1,5.00,000.00,026.4,025.3,000.0,034.8,027.7,15.5,0000.0,0006.63,0002.61,0001.85
2023-11-04 11:41:00,SystemResetWarning,0834.0,4.99,000.00,026.4,025.3,000.0,034.8,027.7,15.6,0000.0,0006.45,0002.58,0001.86
2023-11-04 11:42:00,SystemResetWarning,0834.0,5.00,000.00,026.4,025.3,000.0,034.8,027.8,15.5,0000.0,0005.47,0002.56,0001.88
2023-11-04 11:43:00,SystemResetWarning,0834.1,5.01,000.00,026.4,025.4,000.0,034.8,027.8,15.5,0000.0,0005.56,0002.57,0001.90
2023-11-04 11:44:00,SystemResetWarning,0834.1,5.01,000.00,026.4,025.3,000.0,034.8,027.8,15.5,0000.0,0005.58,0002.58,0001.90
2023-11-04 11:45:00,SystemResetWarning,0834.1,4.99,000.00,026.4,025.3,000.0,034.8,027.8,15.5,0000.0,0005.01,0002.58,0001.90
2023-11-04 11:46:00,SystemResetWarning,0834.1,5.00,000.00,026.4,025.3,000.0,034.8,027.8,15.5,0000.0,0004.43,0002.53,0001.90
2023-11-04 11:47:00,SystemResetWarning,0834.1,5.00,000.00,026.4,025.3,000.0,034.8,027.8,15.5,0000.0,0004.24,0002.48,0001.90
2023-11-04 11:48:00,SystemResetWarning,0834.1,5.00,000.00,026.4,025.3,000.0,034.8,027.8,15.6,0000.0,0003.99,0002.43,0001.89
2023-11-04 11:49:00,SystemResetWarning,0834.1,5.00,000.00,026.4,025.3,000.0,034.8,027.8,15.6,0000.0,0003.93,0002.44,0001.90
2023-11-04 11:50:00,SystemResetWarning,0834.1,4.99,000.00,026.3,025.3,000.0,034.8,027.8,15.7,0000.0,0004.00,0002.42,0001.90
2023-11-04 11:51:00,SystemResetWarning,0834.1,5.00,000.00,026.3,025.3,000.0,034.8,027.8,15.8,0000.0,0004.34,0002.46,0001.91
2023-11-04 11:52:00,SystemResetWarning,0834.1,5.00,000.00,026.3,025.3,000.0,034.8,027.7,15.7,0000.0,0004.62,0002.48,0001.91
2023-11-04 11:53:00,SystemResetWarning,0834.1,5.01,000.00,026.3,025.3,000.0,034.8,027.7,15.7,0000.0,0004.60,0002.46,0001.90
2023-11-04 11:54:00,SystemResetWarning,0834.2,5.00,000.00,026.3,025.3,000.0,034.8,027.7,15.7,0000.0,0004.64,0002.47,0001.90
2023-11-04 11:55:00,SystemResetWarning,0834.1,5.00,000.00,026.3,025.2,000.0,034.8,027.7,15.6,0000.0,0005.36,0002.54,0001.90
2023-11-04 11:56:00,SystemResetWarning,0834.2,5.00,000.00,026.3,025.2,000.0,034.7,027.7,15.7,0000.0,0005.61,0002.62,0001.91
2023-11-04 11:57:00,SystemResetWarning,0834.2,5.00,000.00,026.3,025.2,000.0,034.7,027.7,15.7,0000.0,0005.48,0002.56,0001.90
2023-11-04 11:58:00,SystemResetWarning,0834.3,5.00,000.00,026.3,025.1,000.0,034.7,027.7,15.7,0000.0,0005.57,0002.58,0001.90
2023-11-04 11:59:00,SystemResetWarning,0834.5,4.99,000.00,026.3,025.1,000.0,034.7,027.7,15.7,0000.0,0005.61,0002.58,0001.89
